Regional Weather Roundup
Issued by NWS Albany, NY

Current Version | Previous Version | Text Only | Print | Product List | Glossary Off
Versions: 1 2 3 4 5 6 7 8 9 10 11 12 13 14 15 16 17 18 19 20 21 22 23 24 25 26 27 28 29 30 31 32 33 34 35 36 37 38 39 40 41 42 43 44 45 46 47 48 49 50

000
ASUS41 KALY 031410
RWRALY

NEW YORK STATE HOURLY WEATHER ROUNDUP
NATIONAL WEATHER SERVICE ALBANY NY
1000 AM EDT WED JUN 03 2020

NOTE: "FAIR" INDICATES FEW OR NO CLOUDS BELOW 12,000 FEET WITH NO
SIGNIFICANT WEATHER AND/OR NO OBSTRUCTIONS TO VISIBILITY.

NYZ032-033-038>043-046>054-057>066-NYZ062>081-082-084-031500-
EAST


CITY           SKY/WX    TMP DP  RH WIND       PRES   REMARKS
ALBANY         CLOUDY    64  53  67 S5        29.64R
GLENS FALLS    PTSUNNY   63  54  72 S6        29.61F
POUGHKEEPSIE   PTSUNNY   69  59  70 SW8       29.63S
NEWBURGH       CLOUDY    68  63  83 W9        29.66S
MONTGOMERY     CLOUDY    68  61  78 SW5       29.65S
WHITE PLAINS   PTSUNNY   71  59  65 W8        29.64F
NEW YORK CITY  PTSUNNY   76  58  53 SW7       29.64F
CENTRAL PARK   PTSUNNY   70  60  70 MISG      29.67F
$$

NYZ005>009-017-018-044>046-055-056-031500-
CENTRAL


CITY           SKY/WX    TMP DP  RH WIND       PRES   REMARKS
FULTON         CLOUDY    62  59  90 CALM      29.58F FOG
SYRACUSE       CLOUDY    66  62  87 NE7       29.57F
ROME           CLOUDY    63  57  81 SW3       29.64F
ELMIRA         CLOUDY    73  67  81 SW9       29.64F
BINGHAMTON     LGT RAIN  65  63  93 SE6       29.63F
MONTICELLO     CLOUDY    62  58  86 W7        29.70F
$$

NYZ026>034-041>043-087-031500-
NORTH


CITY           SKY/WX    TMP DP  RH WIND       PRES   REMARKS
WATERTOWN      CLOUDY    63  59  87 VRB3      29.60F
FORT DRUM      NOT AVBL
OGDENSBURG     CLOUDY    61  55  82 CALM      29.58F
MASSENA        CLOUDY    58  53  84 E3        29.61F
SARANAC LAKE   CLOUDY    55  53  93 SW5       29.61S
PLATTSBURGH    CLOUDY    57  54  89 CALM      29.60F
$$

NYZ001>004-010>016-019>021-085-031500-
WEST


CITY           SKY/WX    TMP DP  RH WIND       PRES   REMARKS
NIAGARA FALLS  LGT RAIN  63  61  93 SW5       29.66S FOG
BUFFALO        LGT RAIN  63  60  90 SW13      29.66F
DUNKIRK        PTSUNNY   67  60  78 SW15G24   29.71S
JAMESTOWN      CLOUDY    66  63  88 SW14      29.73F
WELLSVILLE     CLOUDY    65  63  93 SW8       29.75R
ROCHESTER      LGT RAIN  65  64  97 W9        29.63R
PENN YAN       CLOUDY    69  64  84 W8        29.65R
$$

             KEY
       WCI = WIND CHILL INDEX
       VSB = VISIBILITY
       HX  = HEAT INDEX
$$




USA.gov is the U.S. government's official web portal to all federal, state and local government web resources and services.